Time,TemperatureF,DewpointF,PressureIn,WindDirection,WindDirectionDegrees,WindSpeedMPH,WindSpeedGustMPH,Humidity,HourlyPrecipIn,Conditions,Clouds,dailyrainin,SoftwareType,DateUTC
2013-04-30 00:00:00,57.7,51.2,29.74,East,96,6.0,6.0,79,0.00,,,0.00,Wunderground v.1.15,2013-04-30 07:00:00,
2013-04-30 00:05:00,57.8,51.3,29.74,SE,124,4.0,6.0,79,0.00,,,0.00,Wunderground v.1.15,2013-04-30 07:05:00,
2013-04-30 00:15:00,57.8,51.3,29.75,SE,133,3.0,3.0,79,0.00,,,0.00,Wunderground v.1.15,2013-04-30 07:15:00,
2013-04-30 00:25:00,57.8,51.3,29.75,SE,128,4.0,4.0,79,0.00,,,0.00,Wunderground v.1.15,2013-04-30 07:25:00,
2013-04-30 00:40:00,58.0,51.5,29.75,SE,134,3.0,3.0,79,0.00,,,0.00,Wunderground v.1.15,2013-04-30 07:40:00,
2013-04-30 00:45:00,58.0,51.5,29.75,SE,136,4.0,7.0,79,0.00,,,0.00,Wunderground v.1.15,2013-04-30 07:45:00,
2013-04-30 00:55:00,57.8,51.3,29.75,East,100,3.0,3.0,79,0.00,,,0.00,Wunderground v.1.15,2013-04-30 07:55:00,
2013-04-30 01:05:00,57.8,51.3,29.75,East,92,2.0,2.0,79,0.00,,,0.00,Wunderground v.1.15,2013-04-30 08:05:00,
2013-04-30 01:10:00,57.8,51.0,29.75,SE,128,3.0,6.0,78,0.00,,,0.00,Wunderground v.1.15,2013-04-30 08:10:00,
2013-04-30 01:20:00,57.7,50.9,29.75,ESE,119,4.0,4.0,78,0.00,,,0.00,Wunderground v.1.15,2013-04-30 08:20:00,
2013-04-30 01:25:00,57.7,50.9,29.75,ESE,102,4.0,4.0,78,0.00,,,0.00,Wunderground v.1.15,2013-04-30 08:25:00,
2013-04-30 01:35:00,57.5,50.7,29.74,East,93,3.0,3.0,78,0.00,,,0.00,Wunderground v.1.15,2013-04-30 08:35:00,
2013-04-30 01:45:00,57.7,50.9,29.74,East,99,2.0,2.0,78,0.00,,,0.00,Wunderground v.1.15,2013-04-30 08:45:00,
2013-04-30 01:50:00,57.7,50.9,29.74,ESE,113,2.0,7.0,78,0.00,,,0.00,Wunderground v.1.15,2013-04-30 08:50:00,
2013-04-30 02:00:00,57.7,50.9,29.74,SE,138,4.0,4.0,78,0.00,,,0.00,Wunderground v.1.15,2013-04-30 09:00:00,
2013-04-30 02:10:00,57.8,51.0,29.74,ESE,110,2.0,3.0,78,0.00,,,0.00,Wunderground v.1.15,2013-04-30 09:10:00,
2013-04-30 02:15:00,57.8,51.0,29.74,SE,140,4.0,6.0,78,0.00,,,0.00,Wunderground v.1.15,2013-04-30 09:15:00,
2013-04-30 02:21:00,57.8,51.0,29.73,SSE,155,5.0,5.0,78,0.00,,,0.00,Wunderground v.1.15,2013-04-30 09:21:00,
2013-04-30 02:25:00,57.8,51.0,29.73,ESE,119,4.0,5.0,78,0.00,,,0.00,Wunderground v.1.15,2013-04-30 09:25:00,
2013-04-30 02:35:00,57.5,51.0,29.73,ESE,119,4.0,4.0,79,0.00,,,0.00,Wunderground v.1.15,2013-04-30 09:35:00,
2013-04-30 02:40:00,57.5,51.0,29.73,East,100,4.0,4.0,79,0.00,,,0.00,Wunderground v.1.15,2013-04-30 09:40:00,
2013-04-30 02:50:00,57.5,51.0,29.73,East,100,4.0,4.0,79,0.00,,,0.00,Wunderground v.1.15,2013-04-30 09:50:00,
2013-04-30 03:00:00,57.7,51.6,29.73,SE,145,3.0,6.0,80,0.00,,,0.00,Wunderground v.1.15,2013-04-30 10:00:00,
2013-04-30 03:05:00,57.5,51.4,29.73,SE,134,4.0,6.0,80,0.00,,,0.00,Wunderground v.1.15,2013-04-30 10:05:00,
2013-04-30 03:15:00,57.4,51.3,29.73,SE,133,4.0,6.0,80,0.00,,,0.00,Wunderground v.1.15,2013-04-30 10:15:00,
2013-04-30 03:20:00,57.4,51.3,29.73,SE,143,5.0,6.0,80,0.00,,,0.00,Wunderground v.1.15,2013-04-30 10:20:00,
2013-04-30 03:26:00,57.4,51.3,29.73,SSE,150,3.0,3.0,80,0.00,,,0.00,Wunderground v.1.15,2013-04-30 10:26:00,
2013-04-30 03:30:00,57.5,51.4,29.73,SE,128,2.0,3.0,80,0.00,,,0.00,Wunderground v.1.15,2013-04-30 10:30:00,
2013-04-30 03:40:00,57.5,51.4,29.73,SE,144,3.0,3.0,80,0.00,,,0.00,Wunderground v.1.15,2013-04-30 10:40:00,
2013-04-30 03:45:00,57.5,51.4,29.73,SE,138,2.0,3.0,80,0.00,,,0.00,Wunderground v.1.15,2013-04-30 10:45:00,
2013-04-30 03:55:00,57.7,51.6,29.73,ESE,110,2.0,2.0,80,0.00,,,0.00,Wunderground v.1.15,2013-04-30 10:55:00,
2013-04-30 04:05:00,57.7,51.6,29.73,SE,144,3.0,8.0,80,0.00,,,0.00,Wunderground v.1.15,2013-04-30 11:05:00,
2013-04-30 04:20:00,57.7,51.2,29.72,East,86,4.0,4.0,79,0.00,,,0.00,Wunderground v.1.15,2013-04-30 11:20:00,
2013-04-30 04:30:00,57.5,51.0,29.72,SE,126,3.0,3.0,79,0.00,,,0.00,Wunderground v.1.15,2013-04-30 11:30:00,
2013-04-30 04:35:00,57.5,51.0,29.72,SE,140,4.0,5.0,79,0.00,,,0.00,Wunderground v.1.15,2013-04-30 11:35:00,
2013-04-30 04:45:00,57.7,51.2,29.72,SE,136,3.0,4.0,79,0.00,,,0.00,Wunderground v.1.15,2013-04-30 11:45:00,
2013-04-30 04:50:00,57.7,51.2,29.72,South,179,3.0,4.0,79,0.00,,,0.00,Wunderground v.1.15,2013-04-30 11:50:00,
2013-04-30 05:00:00,57.7,51.2,29.72,SSE,157,3.0,7.0,79,0.00,,,0.00,Wunderground v.1.15,2013-04-30 12:00:00,
2013-04-30 05:05:00,57.8,51.3,29.72,SSE,148,4.0,7.0,79,0.00,,,0.00,Wunderground v.1.15,2013-04-30 12:05:00,
2013-04-30 05:15:00,57.7,50.9,29.72,East,96,4.0,4.0,78,0.00,,,0.00,Wunderground v.1.15,2013-04-30 12:15:00,
2013-04-30 05:20:00,57.7,50.9,29.72,ESE,119,4.0,6.0,78,0.00,,,0.00,Wunderground v.1.15,2013-04-30 12:20:00,
2013-04-30 05:30:00,57.7,50.9,29.72,ESE,102,4.0,4.0,78,0.00,,,0.00,Wunderground v.1.15,2013-04-30 12:30:00,
2013-04-30 05:35:00,57.7,50.9,29.72,SSE,151,4.0,5.0,78,0.00,,,0.00,Wunderground v.1.15,2013-04-30 12:35:00,
2013-04-30 05:40:00,57.7,50.9,29.72,SE,141,3.0,3.0,78,0.00,,,0.00,Wunderground v.1.15,2013-04-30 12:40:00,
2013-04-30 05:55:00,57.8,51.0,29.72,SSE,167,2.0,3.0,78,0.00,,,0.00,Wunderground v.1.15,2013-04-30 12:55:00,
2013-04-30 06:00:00,57.8,51.0,29.72,ESE,120,3.0,6.0,78,0.00,,,0.00,Wunderground v.1.15,2013-04-30 13:00:00,
2013-04-30 06:10:00,57.8,51.0,29.72,SE,124,4.0,4.0,78,0.00,,,0.00,Wunderground v.1.15,2013-04-30 13:10:00,
2013-04-30 06:15:00,57.8,51.0,29.72,SE,133,4.0,4.0,78,0.00,,,0.00,Wunderground v.1.15,2013-04-30 13:15:00,
2013-04-30 06:25:00,57.8,50.6,29.73,SE,136,4.0,5.0,77,0.00,,,0.00,Wunderground v.1.15,2013-04-30 13:25:00,
2013-04-30 06:35:00,57.8,50.6,29.73,SE,136,3.0,5.0,77,0.00,,,0.00,Wunderground v.1.15,2013-04-30 13:35:00,
2013-04-30 06:50:00,58.0,50.8,29.73,SSE,150,4.0,4.0,77,0.00,,,0.00,Wunderground v.1.15,2013-04-30 13:50:00,
2013-04-30 07:00:00,58.1,50.9,29.73,East,95,2.0,4.0,77,0.00,,,0.00,Wunderground v.1.15,2013-04-30 14:00:00,
2013-04-30 07:05:00,58.1,50.9,29.73,SE,133,2.0,4.0,77,0.00,,,0.00,Wunderground v.1.15,2013-04-30 14:05:00,
2013-04-30 07:15:00,58.1,50.6,29.74,SSE,152,3.0,5.0,76,0.00,,,0.00,Wunderground v.1.15,2013-04-30 14:15:00,
2013-04-30 07:26:00,58.1,50.6,29.74,ESE,121,5.0,5.0,76,0.00,,,0.00,Wunderground v.1.15,2013-04-30 14:26:00,
2013-04-30 07:30:00,58.1,50.6,29.74,ESE,116,4.0,5.0,76,0.00,,,0.00,Wunderground v.1.15,2013-04-30 14:30:00,
2013-04-30 07:40:00,58.3,50.4,29.74,SE,124,4.0,8.0,75,0.00,,,0.00,Wunderground v.1.15,2013-04-30 14:40:00,
2013-04-30 07:45:00,58.4,50.5,29.74,SE,130,4.0,8.0,75,0.00,,,0.00,Wunderground v.1.15,2013-04-30 14:45:00,
2013-04-30 07:55:00,58.4,50.5,29.74,ESE,104,3.0,3.0,75,0.00,,,0.00,Wunderground v.1.15,2013-04-30 14:55:00,
2013-04-30 08:10:00,58.6,50.7,29.75,East,95,4.0,4.0,75,0.00,,,0.00,Wunderground v.1.15,2013-04-30 15:10:00,
2013-04-30 08:20:00,58.7,50.8,29.75,SSE,165,3.0,5.0,75,0.00,,,0.00,Wunderground v.1.15,2013-04-30 15:20:00,
2013-04-30 08:25:00,58.7,50.8,29.75,SE,127,4.0,5.0,75,0.00,,,0.00,Wunderground v.1.15,2013-04-30 15:25:00,
2013-04-30 08:35:00,58.9,50.6,29.75,South,171,2.0,5.0,74,0.00,,,0.00,Wunderground v.1.15,2013-04-30 15:35:00,
2013-04-30 08:45:00,59.0,50.7,29.75,ESE,120,4.0,4.0,74,0.00,,,0.00,Wunderground v.1.15,2013-04-30 15:45:00,
2013-04-30 08:50:00,59.0,50.7,29.75,ENE,69,3.0,4.0,74,0.00,,,0.00,Wunderground v.1.15,2013-04-30 15:50:00,
2013-04-30 09:00:00,59.0,50.7,29.75,ESE,102,4.0,4.0,74,0.00,,,0.00,Wunderground v.1.15,2013-04-30 16:00:00,
2013-04-30 09:15:00,59.4,50.7,29.75,East,99,4.0,4.0,73,0.00,,,0.00,Wunderground v.1.15,2013-04-30 16:15:00,
2013-04-30 09:20:00,59.5,50.8,29.75,SE,134,3.0,8.0,73,0.00,,,0.00,Wunderground v.1.15,2013-04-30 16:20:00,
2013-04-30 09:30:00,59.7,50.7,29.75,SE,134,4.0,4.0,72,0.00,,,0.00,Wunderground v.1.15,2013-04-30 16:30:00,
2013-04-30 09:40:00,59.8,50.8,29.75,ESE,117,2.0,2.0,72,0.00,,,0.00,Wunderground v.1.15,2013-04-30 16:40:00,
2013-04-30 09:45:00,60.0,50.9,29.75,SSE,154,2.0,2.0,72,0.00,,,0.00,Wunderground v.1.15,2013-04-30 16:45:00,
2013-04-30 09:55:00,60.1,51.0,29.75,East,92,4.0,6.0,72,0.00,,,0.00,Wunderground v.1.15,2013-04-30 16:55:00,
2013-04-30 10:00:00,60.3,51.2,29.75,South,184,4.0,6.0,72,0.00,,,0.00,Wunderground v.1.15,2013-04-30 17:00:00,
2013-04-30 10:10:00,60.5,52.2,29.75,SE,143,4.0,7.0,74,0.00,,,0.00,Wunderground v.1.15,2013-04-30 17:10:00,
2013-04-30 10:20:00,60.5,51.8,29.75,SSE,152,4.0,5.0,73,0.00,,,0.00,Wunderground v.1.15,2013-04-30 17:20:00,
2013-04-30 10:25:00,60.5,51.8,29.75,SE,138,5.0,6.0,73,0.00,,,0.00,Wunderground v.1.15,2013-04-30 17:25:00,
2013-04-30 10:35:00,60.5,51.8,29.75,ESE,117,5.0,5.0,73,0.00,,,0.00,Wunderground v.1.15,2013-04-30 17:35:00,
2013-04-30 10:45:00,60.9,52.6,29.76,SSE,148,3.0,6.0,74,0.00,,,0.00,Wunderground v.1.15,2013-04-30 17:45:00,
2013-04-30 10:50:00,60.9,52.2,29.76,South,171,4.0,6.0,73,0.00,,,0.00,Wunderground v.1.15,2013-04-30 17:50:00,
2013-04-30 11:00:00,60.9,52.2,29.76,South,185,4.0,5.0,73,0.00,,,0.00,Wunderground v.1.15,2013-04-30 18:00:00,
2013-04-30 11:05:00,60.9,52.2,29.76,SE,141,4.0,7.0,73,0.00,,,0.00,Wunderground v.1.15,2013-04-30 18:05:00,
2013-04-30 11:15:00,60.9,52.2,29.76,South,169,5.0,5.0,73,0.00,,,0.00,Wunderground v.1.15,2013-04-30 18:15:00,
2013-04-30 11:20:00,60.6,51.9,29.76,SSW,208,4.0,5.0,73,0.00,,,0.00,Wunderground v.1.15,2013-04-30 18:20:00,
2013-04-30 11:30:00,60.9,52.6,29.76,SSW,198,3.0,3.0,74,0.00,,,0.00,Wunderground v.1.15,2013-04-30 18:30:00,
2013-04-30 11:35:00,61.1,52.7,29.76,SSW,208,4.0,4.0,74,0.00,,,0.00,Wunderground v.1.15,2013-04-30 18:35:00,
2013-04-30 11:45:00,61.4,53.0,29.76,South,181,4.0,4.0,74,0.00,,,0.00,Wunderground v.1.15,2013-04-30 18:45:00,
2013-04-30 11:50:00,61.4,52.7,29.76,South,169,4.0,6.0,73,0.00,,,0.00,Wunderground v.1.15,2013-04-30 18:50:00,
2013-04-30 12:00:00,61.7,52.6,29.75,SSW,205,5.0,7.0,72,0.00,,,0.00,Wunderground v.1.15,2013-04-30 19:00:00,
2013-04-30 12:05:00,62.0,52.5,29.75,SE,138,5.0,7.0,71,0.00,,,0.00,Wunderground v.1.15,2013-04-30 19:05:00,
2013-04-30 12:11:00,62.0,52.1,29.75,SSE,155,6.0,6.0,70,0.00,,,0.00,Wunderground v.1.15,2013-04-30 19:11:00,
2013-04-30 12:15:00,62.2,52.7,29.76,SSE,162,6.0,7.0,71,0.00,,,0.00,Wunderground v.1.15,2013-04-30 19:15:00,
2013-04-30 12:20:00,62.4,52.9,29.76,SSE,160,6.0,7.0,71,0.00,,,0.00,Wunderground v.1.15,2013-04-30 19:20:00,
2013-04-30 12:26:00,62.5,53.0,29.76,SSE,157,6.0,8.0,71,0.00,,,0.00,Wunderground v.1.15,2013-04-30 19:26:00,
2013-04-30 12:30:00,62.5,52.6,29.76,SSW,213,6.0,8.0,70,0.00,,,0.00,Wunderground v.1.15,2013-04-30 19:30:00,
2013-04-30 12:40:00,62.8,52.5,29.76,South,184,6.0,7.0,69,0.00,,,0.00,Wunderground v.1.15,2013-04-30 19:40:00,
2013-04-30 12:55:00,63.2,52.5,29.76,SSE,164,8.0,8.0,68,0.00,,,0.00,Wunderground v.1.15,2013-04-30 19:55:00,
2013-04-30 13:05:00,63.8,53.4,29.76,South,171,6.0,6.0,69,0.00,,,0.00,Wunderground v.1.15,2013-04-30 20:05:00,
2013-04-30 13:10:00,64.3,53.1,29.76,SSW,192,6.0,7.0,67,0.00,,,0.00,Wunderground v.1.15,2013-04-30 20:10:00,
2013-04-30 13:20:00,64.5,52.5,29.76,SSW,205,6.0,6.0,65,0.00,,,0.00,Wunderground v.1.15,2013-04-30 20:20:00,
2013-04-30 13:35:00,64.3,53.1,29.76,South,179,5.0,5.0,67,0.00,,,0.00,Wunderground v.1.15,2013-04-30 20:35:00,
2013-04-30 13:45:00,64.3,52.7,29.76,SW,216,5.0,5.0,66,0.00,,,0.00,Wunderground v.1.15,2013-04-30 20:45:00,
2013-04-30 13:50:00,64.1,52.9,29.76,South,188,6.0,6.0,67,0.00,,,0.00,Wunderground v.1.15,2013-04-30 20:50:00,
2013-04-30 14:00:00,64.0,53.2,29.76,SW,227,6.0,7.0,68,0.00,,,0.00,Wunderground v.1.15,2013-04-30 21:00:00,
2013-04-30 14:05:00,63.5,53.1,29.76,South,176,6.0,7.0,69,0.00,,,0.00,Wunderground v.1.15,2013-04-30 21:05:00,
2013-04-30 14:15:00,63.7,52.5,29.76,SW,215,5.0,5.0,67,0.00,,,0.00,Wunderground v.1.15,2013-04-30 21:15:00,
2013-04-30 14:25:00,63.7,52.5,29.76,SW,215,6.0,7.0,67,0.00,,,0.00,Wunderground v.1.15,2013-04-30 21:25:00,
2013-04-30 14:30:00,63.5,53.1,29.76,SW,217,6.0,7.0,69,0.00,,,0.00,Wunderground v.1.15,2013-04-30 21:30:00,
2013-04-30 14:40:00,63.7,52.9,29.75,SW,234,6.0,8.0,68,0.00,,,0.00,Wunderground v.1.15,2013-04-30 21:40:00,
2013-04-30 14:50:00,63.5,52.3,29.75,SW,227,6.0,8.0,67,0.00,,,0.00,Wunderground v.1.15,2013-04-30 21:50:00,
2013-04-30 14:55:00,63.5,52.7,29.75,South,169,6.0,8.0,68,0.00,,,0.00,Wunderground v.1.15,2013-04-30 21:55:00,
2013-04-30 15:05:00,63.7,52.5,29.74,SSE,160,6.0,6.0,67,0.00,,,0.00,Wunderground v.1.15,2013-04-30 22:05:00,
2013-04-30 15:15:00,63.7,52.9,29.73,SW,227,7.0,7.0,68,0.00,,,0.00,Wunderground v.1.15,2013-04-30 22:15:00,
2013-04-30 15:20:00,64.0,52.8,29.73,South,185,7.0,8.0,67,0.00,,,0.00,Wunderground v.1.15,2013-04-30 22:20:00,
2013-04-30 15:30:00,64.9,52.8,29.73,SSW,192,6.0,6.0,65,0.00,,,0.00,Wunderground v.1.15,2013-04-30 22:30:00,
2013-04-30 15:35:00,64.9,52.8,29.73,SSW,195,5.0,6.0,65,0.00,,,0.00,Wunderground v.1.15,2013-04-30 22:35:00,
2013-04-30 15:41:00,64.6,52.6,29.73,South,189,6.0,6.0,65,0.00,,,0.00,Wunderground v.1.15,2013-04-30 22:41:00,
2013-04-30 15:45:00,64.6,53.0,29.72,SE,128,6.0,7.0,66,0.00,,,0.00,Wunderground v.1.15,2013-04-30 22:45:00,
2013-04-30 15:55:00,64.5,52.9,29.72,South,179,5.0,5.0,66,0.00,,,0.00,Wunderground v.1.15,2013-04-30 22:55:00,
2013-04-30 16:00:00,64.6,52.6,29.72,SW,232,5.0,8.0,65,0.00,,,0.00,Wunderground v.1.15,2013-04-30 23:00:00,
2013-04-30 16:10:00,64.3,52.7,29.72,South,189,5.0,7.0,66,0.00,,,0.00,Wunderground v.1.15,2013-04-30 23:10:00,
2013-04-30 16:15:00,64.5,52.5,29.72,SSW,212,5.0,7.0,65,0.00,,,0.00,Wunderground v.1.15,2013-04-30 23:15:00,
2013-04-30 16:25:00,63.7,52.1,29.72,SW,217,7.0,7.0,66,0.00,,,0.00,Wunderground v.1.15,2013-04-30 23:25:00,
2013-04-30 16:35:00,63.5,52.3,29.72,WSW,243,7.0,7.0,67,0.00,,,0.00,Wunderground v.1.15,2013-04-30 23:35:00,
2013-04-30 16:40:00,63.2,52.5,29.72,WSW,253,8.0,8.0,68,0.00,,,0.00,Wunderground v.1.15,2013-04-30 23:40:00,
2013-04-30 16:50:00,62.5,52.2,29.72,South,189,7.0,7.0,69,0.00,,,0.00,Wunderground v.1.15,2013-04-30 23:50:00,
2013-04-30 16:55:00,62.5,52.2,29.72,SW,236,7.0,7.0,69,0.00,,,0.00,Wunderground v.1.15,2013-04-30 23:55:00,
2013-04-30 17:05:00,62.2,52.7,29.73,SSE,164,6.0,7.0,71,0.00,,,0.00,Wunderground v.1.15,2013-05-01 00:05:00,
2013-04-30 17:10:00,62.2,52.3,29.73,SSW,203,6.0,7.0,70,0.00,,,0.00,Wunderground v.1.15,2013-05-01 00:10:00,
2013-04-30 17:20:00,61.6,52.5,29.73,SSW,209,5.0,5.0,72,0.00,,,0.00,Wunderground v.1.15,2013-05-01 00:20:00,
2013-04-30 17:30:00,61.6,52.9,29.73,SSW,206,5.0,10.0,73,0.00,,,0.00,Wunderground v.1.15,2013-05-01 00:30:00,
2013-04-30 17:45:00,61.1,52.7,29.73,SW,227,5.0,5.0,74,0.00,,,0.00,Wunderground v.1.15,2013-05-01 00:45:00,
2013-04-30 17:50:00,61.1,52.7,29.73,SSE,155,4.0,6.0,74,0.00,,,0.00,Wunderground v.1.15,2013-05-01 00:50:00,
2013-04-30 17:55:00,61.1,52.4,29.73,SSE,167,4.0,4.0,73,0.00,,,0.00,Wunderground v.1.15,2013-05-01 00:55:00,
2013-04-30 18:10:00,60.9,52.6,29.73,South,191,5.0,5.0,74,0.00,,,0.00,Wunderground v.1.15,2013-05-01 01:10:00,
2013-04-30 18:15:00,60.9,52.6,29.73,SSE,167,5.0,5.0,74,0.00,,,0.00,Wunderground v.1.15,2013-05-01 01:15:00,
2013-04-30 18:30:00,60.5,52.5,29.74,SSE,164,4.0,4.0,75,0.00,,,0.00,Wunderground v.1.15,2013-05-01 01:30:00,
2013-04-30 18:35:00,60.3,52.0,29.74,South,189,4.0,4.0,74,0.00,,,0.00,Wunderground v.1.15,2013-05-01 01:35:00,
2013-04-30 18:40:00,60.5,52.2,29.74,SSW,193,4.0,6.0,74,0.00,,,0.00,Wunderground v.1.15,2013-05-01 01:40:00,
2013-04-30 18:45:00,60.5,52.2,29.74,SSW,195,3.0,6.0,74,0.00,,,0.00,Wunderground v.1.15,2013-05-01 01:45:00,
2013-04-30 19:00:00,60.5,52.2,29.74,South,176,3.0,3.0,74,0.00,,,0.00,Wunderground v.1.15,2013-05-01 02:00:00,
2013-04-30 19:05:00,60.5,52.2,29.74,South,175,3.0,3.0,74,0.00,,,0.00,Wunderground v.1.15,2013-05-01 02:05:00,
2013-04-30 19:10:00,60.5,52.2,29.74,South,169,3.0,6.0,74,0.00,,,0.00,Wunderground v.1.15,2013-05-01 02:10:00,
2013-04-30 19:20:00,60.1,52.1,29.75,SE,145,4.0,5.0,75,0.00,,,0.00,Wunderground v.1.15,2013-05-01 02:20:00,
2013-04-30 19:25:00,60.1,52.1,29.75,SE,134,3.0,5.0,75,0.00,,,0.00,Wunderground v.1.15,2013-05-01 02:25:00,
2013-04-30 19:36:00,60.0,52.1,29.75,South,191,4.0,4.0,75,0.00,,,0.00,Wunderground v.1.15,2013-05-01 02:36:00,
2013-04-30 19:40:00,60.0,52.1,29.75,SSE,162,3.0,6.0,75,0.00,,,0.00,Wunderground v.1.15,2013-05-01 02:40:00,
2013-04-30 19:45:00,59.8,52.2,29.75,South,184,3.0,6.0,76,0.00,,,0.00,Wunderground v.1.15,2013-05-01 02:45:00,
2013-04-30 19:55:00,59.7,52.1,29.74,SSE,161,5.0,10.0,76,0.00,,,0.00,Wunderground v.1.15,2013-05-01 02:55:00,
2013-04-30 20:10:00,59.4,51.5,29.74,SE,126,4.0,4.0,75,0.00,,,0.00,Wunderground v.1.15,2013-05-01 03:10:00,
2013-04-30 20:26:00,59.2,51.3,29.75,SSE,155,5.0,6.0,75,0.00,,,0.00,Wunderground v.1.15,2013-05-01 03:26:00,
2013-04-30 20:30:00,59.2,51.3,29.75,SE,136,5.0,6.0,75,0.00,,,0.00,Wunderground v.1.15,2013-05-01 03:30:00,
2013-04-30 20:45:00,59.4,51.5,29.75,SE,134,5.0,5.0,75,0.00,,,0.00,Wunderground v.1.15,2013-05-01 03:45:00,
2013-04-30 21:01:00,59.5,51.9,29.76,SSE,150,2.0,2.0,76,0.00,,,0.00,Wunderground v.1.15,2013-05-01 04:01:00,
2013-04-30 21:05:00,59.4,51.5,29.76,SSW,193,3.0,3.0,75,0.00,,,0.00,Wunderground v.1.15,2013-05-01 04:05:00,
2013-04-30 21:20:00,59.4,51.5,29.77,SE,127,5.0,5.0,75,0.00,,,0.00,Wunderground v.1.15,2013-05-01 04:20:00,
2013-04-30 21:25:00,59.2,51.3,29.77,SE,128,4.0,5.0,75,0.00,,,0.00,Wunderground v.1.15,2013-05-01 04:25:00,
2013-04-30 21:35:00,59.4,51.5,29.77,SE,145,3.0,3.0,75,0.00,,,0.00,Wunderground v.1.15,2013-05-01 04:35:00,
2013-04-30 21:40:00,59.2,51.3,29.77,SE,134,4.0,4.0,75,0.00,,,0.00,Wunderground v.1.15,2013-05-01 04:40:00,
2013-04-30 21:50:00,59.2,51.3,29.77,ESE,121,4.0,4.0,75,0.00,,,0.00,Wunderground v.1.15,2013-05-01 04:50:00,
2013-04-30 21:55:00,59.4,51.5,29.77,ESE,112,3.0,4.0,75,0.00,,,0.00,Wunderground v.1.15,2013-05-01 04:55:00,
2013-04-30 22:05:00,59.4,51.5,29.78,SE,143,3.0,6.0,75,0.00,,,0.00,Wunderground v.1.15,2013-05-01 05:05:00,
2013-04-30 22:20:00,59.4,51.5,29.78,SE,136,2.0,3.0,75,0.00,,,0.00,Wunderground v.1.15,2013-05-01 05:20:00,
2013-04-30 22:25:00,59.4,51.5,29.78,SE,141,4.0,4.0,75,0.00,,,0.00,Wunderground v.1.15,2013-05-01 05:25:00,
2013-04-30 22:35:00,59.2,50.9,29.78,SE,126,5.0,7.0,74,0.00,,,0.00,Wunderground v.1.15,2013-05-01 05:35:00,
2013-04-30 22:40:00,59.2,50.9,29.78,ESE,121,5.0,7.0,74,0.00,,,0.00,Wunderground v.1.15,2013-05-01 05:40:00,
2013-04-30 22:45:00,59.2,50.9,29.78,SSE,152,5.0,5.0,74,0.00,,,0.00,Wunderground v.1.15,2013-05-01 05:45:00,
2013-04-30 22:50:00,59.2,50.9,29.78,ESE,113,5.0,5.0,74,0.00,,,0.00,Wunderground v.1.15,2013-05-01 05:50:00,
2013-04-30 23:00:00,59.2,51.3,29.78,SSE,150,6.0,11.0,75,0.00,,,0.00,Wunderground v.1.15,2013-05-01 06:00:00,
2013-04-30 23:05:00,59.0,51.1,29.78,SE,130,6.0,11.0,75,0.00,,,0.00,Wunderground v.1.15,2013-05-01 06:05:00,
2013-04-30 23:15:00,59.0,51.1,29.78,ESE,123,4.0,4.0,75,0.00,,,0.00,Wunderground v.1.15,2013-05-01 06:15:00,
2013-04-30 23:20:00,59.0,51.1,29.78,South,178,4.0,4.0,75,0.00,,,0.00,Wunderground v.1.15,2013-05-01 06:20:00,
2013-04-30 23:30:00,58.9,51.3,29.78,SE,141,4.0,6.0,76,0.00,,,0.00,Wunderground v.1.15,2013-05-01 06:30:00,
2013-04-30 23:45:00,59.0,51.4,29.78,SSE,152,4.0,6.0,76,0.00,,,0.00,Wunderground v.1.15,2013-05-01 06:45:00,
2013-04-30 23:50:00,58.9,51.3,29.78,SE,137,5.0,6.0,76,0.00,,,0.00,Wunderground v.1.15,2013-05-01 06:50:00,